Location: Bruneau Dunes Observatory
(42.9024°N, 115.6902°W)
Time: 19:50:33
(UTC-06:00)

Daily predictions for brighter satellites

Satellite Brightness Start Highest point End
(mag) Time Altitude Azimuth Time Altitude Azimuth Time Altitude Azimuth
Cosmos 1656 3.7 20:36:54 10° S 20:42:24 62° ESE 20:47:54 10° NNE
ALOS 2.6 20:39:07 10° SE 20:43:34 46° ENE 20:48:03 10° N
FENGYUN 3A 3.9 20:38:59 10° SE 20:44:07 49° ENE 20:49:15 10° N
Cosmos 2369 4.1 20:39:48 10° SSW 20:45:28 73° WNW 20:51:12 10° NNE
Spot 2 Rocket 3.7 20:41:01 10° S 20:46:06 79° WSW 20:51:12 10° NNW
Resurs 1-3 3.6 20:42:27 10° SSE 20:46:49 82° ENE 20:51:14 10° N
RESURS DK-1 2.7 20:44:31 10° NNW 20:48:33 47° ENE 20:52:33 10° SE
Tiangong 1 1.6 20:46:49 10° W 20:49:51 49° SSW 20:52:52 10° ESE
OAO 2 Rocket 4.4 20:47:46 10° WSW 20:52:10 32° S 20:56:38 10° ESE
Cosmos 1937 Rocket 3.8 20:49:48 10° N 20:54:57 50° ENE 21:00:05 10° SE
Envisat 4.5 20:53:18 10° ESE 20:56:53 20° ENE 21:00:30 10° NNE
Cosmos 2263 Rocket 4.2 20:55:42 10° NNE 20:58:10 13° NE 21:00:37 10° ENE
Cosmos 2123 Rocket 4.2 20:52:36 10° N 20:58:46 77° W 21:04:57 10° S
Cosmos 1500 3.5 20:57:08 10° SSE 21:00:44 44° E 21:04:21 10° NNE
Helios 1A 3.9 20:56:57 10° S 21:01:02 53° W 21:05:09 10° NNW
Cosmos 1459 Rocket 4.5 20:56:00 10° SSE 21:01:26 36° E 21:06:57 10° NNE
Cosmos 1340 3.9 21:00:20 10° NNE 21:03:26 23° ENE 21:06:06 12° ESE
Cosmos 2227 Rocket 3.7 21:02:55 10° NW 21:08:05 37° WSW 21:13:13 10° S
Cosmos 2298 Rocket 4.1 21:03:27 10° NNW 21:08:48 84° WSW 21:14:07 10° SSE
BREEZE-M DEB (TANK) 4.2 21:05:05 10° SW 21:09:02 78° SE 21:23:29 10° ENE
CZ-2D R/B 3.2 21:07:45 10° SSE 21:11:37 80° ENE 21:15:32 10° N
Cosmos 2322 Rocket 3.4 21:08:57 10° SE 21:12:44 19° E 21:16:33 10° ENE
ERS-1 Rocket 3.7 21:09:00 11° SE 21:13:16 33° ENE 21:17:45 10° N
Lacrosse 5 rocket 3.9 21:16:09 10° W 21:17:34 12° WSW 21:18:56 10° SW
Cosmos 1975 3.2 21:13:29 10° SSW 21:17:34 70° W 21:21:41 10° N
Resurs 01 Rocket 3.3 21:14:43 10° SSW 21:18:46 35° W 21:22:52 10° NNW
Cosmos 2297 Rocket 3.5 21:17:21 10° NW 21:22:36 40° WSW 21:27:48 10° S
Cosmos 1515 4.0 21:21:13 10° NNW 21:25:03 68° W 21:28:50 10° S
Cosmos 1763 Rocket 3.6 21:20:32 10° S 21:25:25 48° ESE 21:30:17 10° NNE
EO 1 Delta rocket 4.2 21:21:11 10° N 21:26:01 81° W 21:31:48 10° SSW
Cosmos 2360 4.3 21:29:27 10° S 21:35:00 54° ESE 21:40:34 10° NNE
Cosmos 1825 Rocket 3.5 21:30:53 10° N 21:35:17 62° E 21:38:42 16° SSE
Cosmos 2227 4.2 21:31:59 10° NNW 21:37:44 72° ENE 21:41:58 19° SSE
Cosmos 1898 Rocket 4.5 21:35:10 10° NNW 21:40:14 47° WSW 21:45:14 10° S
ASTEX 1 4.2 21:38:54 10° NNE 21:43:19 30° E 21:44:47 26° ESE
Cosmos 2228 4.0 21:45:13 26° E 21:45:16 26° E 21:48:49 10° NNE
Meteor 1-21 4.2 21:40:26 10° N 21:46:15 71° E 21:51:00 16° SSE
Cosmos 1125 Rocket 4.0 21:41:33 10° N 21:46:31 43° ENE 21:48:48 27° ESE
Cosmos 1743 2.7 21:43:50 10° S 21:47:45 88° W 21:51:41 10° N
Cosmos 1953 Rocket 3.6 21:43:52 10° N 21:48:19 63° E 21:50:51 25° SSE
H-2A R/B 2.7 21:49:17 31° E 21:50:18 36° ENE 21:54:08 10° N
Cosmos 841 Rocket 3.4 21:46:27 10° SSW 21:51:39 74° ESE 21:56:52 10° NNE
Cosmos 540 Rocket 4.2 21:51:51 28° ESE 21:52:08 29° E 21:56:31 10° NE
Cosmos 1802 Rocket 4.0 21:46:00 10° S 21:52:24 79° E 21:58:51 10° N
Cosmos 2016 Rocket 3.9 21:48:07 10° S 21:54:11 68° E 22:00:22 10° NNE
Cosmos 1697 Rocket 3.8 21:50:21 10° SW 21:55:47 47° WNW 22:01:14 10° NNE
Cosmos 332 Rocket 4.5 21:55:37 32° ESE 21:55:53 32° E 22:00:14 10° NE
USA 186 3.9 21:57:05 10° SSW 21:59:27 22° W 22:01:42 10° NW
Cosmos 1939 Rocket 2.8 21:58:21 32° SSE 22:00:12 77° ENE 22:04:23 10° N
Cosmos 2098 Rocket 3.9 21:55:36 10° S 22:02:06 59° E 22:07:20 10° NNE
ARGOS 4.2 22:01:56 26° E 22:03:02 28° ENE 22:07:34 10° N
Cosmos 2173 Rocket 4.2 21:59:26 10° SSW 22:05:47 74° W 22:12:07 10° N
Lacrosse 5 3.6 22:01:51 10° WNW 22:05:58 26° WSW 22:09:26 13° S
Cosmos 1758 Rocket 3.4 22:02:02 10° N 22:06:24 84° E 22:08:06 36° SSE
SJ-11-01 4.5 22:03:11 19° S 22:06:29 71° WSW 22:11:10 10° NNW
MetOp-B 4.5 22:07:02 36° ESE 22:08:39 47° ENE 22:13:47 10° N
SL-16 R/B 2.2 22:06:13 10° S 22:11:43 55° ESE 22:17:16 10° NNE
Cosmos 372 Rocket 4.4 22:07:16 10° N 22:12:12 44° ENE 22:13:12 39° E
Cosmos 1375 Rocket 4.5 22:07:12 10° SSW 22:13:41 66° ESE 22:20:13 10° NE
Cosmos 546 4.5 22:10:15 10° SW 22:14:09 72° SE 22:14:20 70° ESE
YAOGAN 6 3.3 22:17:21 40° NE 22:17:21 40° NE 22:20:22 10° N
SPOT 5 2.9 22:15:52 47° SE 22:17:02 62° ENE 22:21:41 10° N
Cosmos 1980 Rocket 3.2 22:15:17 10° SW 22:20:45 49° WNW 22:26:18 10° NNE
CZ-4 DEB 4.3 22:20:23 27° SW 22:21:15 32° W 22:24:08 10° NNW
Cosmos 2360 Rocket 3.9 22:24:17 17° ENE 22:24:17 17° ENE 22:25:59 10° NE
Cosmos 1864 Rocket 4.3 22:19:09 22° S 22:23:13 75° E 22:29:21 10° N
deb Chang Zheng 4 3.5 22:20:04 10° NNE 22:24:32 75° ESE 22:25:22 57° S
Cosmos 1666 2.9 22:23:52 46° SSW 22:24:50 69° W 22:28:39 10° N
Terra 3.7 22:25:58 17° NE 22:25:58 17° NE 22:28:27 10° NNE
Tiangong 1 3.8 22:24:22 10° WSW 22:25:01 12° SW 22:25:01 12° SW
Cosmos 1842 3.6 22:25:08 10° NNW 22:29:00 62° W 22:29:33 54° SW
Envisat 3.5 22:33:04 29° SSW 22:35:29 55° W 22:40:30 10° NNW
Cosmos 2058 Rocket 3.7 22:36:37 25° SSW 22:39:04 56° W 22:43:31 10° N
Tsikada Rocket 4.1 22:34:06 10° N 22:40:32 81° W 22:43:16 37° S
SL-08 RB Rocket 4.4 22:42:32 43° NE 22:42:32 43° NE 22:46:19 10° N
Cosmos 2263 Rocket 2.1 22:37:37 10° NNW 22:43:11 69° ENE 22:43:44 64° E
Cosmos 1816 Rocket 4.5 22:45:51 10° N 22:52:15 82° W 22:54:03 50° S
MetOp-A 4.3 22:53:57 54° SSW 22:54:59 66° WSW 23:00:21 10° NNW
Cosmos 2322 Rocket 2.6 22:50:40 10° SW 22:56:13 63° WNW 23:01:49 10° NNE
Cosmos 1725 Rocket 4.4 22:52:15 18° SSW 22:56:58 60° W 23:03:11 10° N
H-2A R/B 2.7 23:15:46 44° NNE 23:15:46 44° NNE 23:19:20 10° N
SL-19 R/B 4.2 23:09:10 10° NNE 23:14:30 76° WNW 23:14:30 76° WNW
Cosmos 2233 Rocket 4.2 23:15:11 50° SW 23:16:44 68° W 23:23:00 10° N
Meteor 2-5 Rocket 3.8 23:16:30 10° NNW 23:22:17 75° W 23:22:17 75° W
Meteor 1-24 Rocket 4.1 23:18:59 10° N 23:24:13 61° NNE 23:24:13 61° NNE
H-2A R/B 4.2 23:26:27 19° W 23:26:27 19° W 23:29:28 10° NW
USA 215 3.7 23:27:13 47° ENE 23:28:15 52° NNE 23:34:33 10° NW
SPOT 1/Viking Rocket 4.4 23:34:36 43° W 23:34:36 43° W 23:39:15 10° NNW
Cosmos 2278 Rocket 3.9 23:35:06 10° N 23:38:51 24° NE 23:38:51 24° NE
ARGOS 4.1 23:43:27 40° W 23:43:27 40° W 23:48:10 10° NNW
BREEZE-M DEB (TANK) 3.9 23:29:50 10° WNW 23:43:51 65° WSW 23:43:51 65° WSW
Cosmos 1844 Rocket 3.7 23:48:12 10° NNW 23:52:00 41° N 23:52:00 41° N
